Regional Weather Roundup
Issued by NWS

Home | Current Version | Previous Version | Graphics & Text | Print | Product List | Glossary On
Versions: 1 2 3 4 5 6 7 8 9 10 11 12 13 14 15 16 17 18 19 20 21 22 23 24 25 26 27 28 29 30 31 32 33 34 35 36 37 38 39 40 41 42 43 44 45 46 47 48 49 50
000
ASUS43 KMKX 300621
RWRWI

WISCONSIN REGIONAL WEATHER ROUNDUP
NATIONAL WEATHER SERVICE MILWAUKEE/SULLIVAN WI
100 AM CDT SAT MAY 30 2015

NOTE: "FAIR" INDICATES FEW OR NO CLOUDS BELOW 12,000 FEET WITH NO
SIGNIFICANT WEATHER AND/OR OBSTRUCTIONS TO VISIBILITY.

WIZ001-002-006>008-014>016-023>028-300700-
NORTHWEST WISCONSIN

CITY           SKY/WX    TMP DP  RH WIND       PRES   REMARKS
SUPERIOR ARPT  PTCLDY    48  40  75 N7        30.12S
6HR MIN TEMP:  48; 6HR MAX TEMP:  56;

ASHLAND        CLOUDY    52  45  77 N5        30.08R
6HR MIN TEMP:  52; 6HR MAX TEMP:  58; 6HR PCP: TRACE;

HAYWARD        CLOUDY    50  47  89 N7        30.08R
6HR MIN TEMP:  50; 6HR MAX TEMP:  59; 6HR PCP:  0.06;

SIREN          CLOUDY    50  44  80 N6        30.10S
6HR MIN TEMP:  50; 6HR MAX TEMP:  56; 6HR PCP:  0.02;

CUMBERLAND     CLOUDY    48  45  87 N13G20    30.07R
RICE LAKE      CLOUDY    51  46  86 N16       30.07R
6HR MIN TEMP:  51; 6HR MAX TEMP:  62;

CHETEK         LGT RAIN  51  50  95 N8G17     30.05R
6HR MIN TEMP:  51; 6HR MAX TEMP:  64; 6HR PCP:  0.04;

LADYSMITH      CLOUDY    53  51  93 N13G18    30.05R
6HR MIN TEMP:  53; 6HR MAX TEMP:  63; 6HR PCP:  0.14;

EAU CLAIRE     CLOUDY    56  53  90 N13G21    30.00R
6HR MIN TEMP:  57; 6HR MAX TEMP:  65; 6HR PCP:  0.11;

MENOMONIE      CLOUDY    53  53  99 N18G24    30.03R
6HR MIN TEMP:  53; 6HR MAX TEMP:  65; 6HR PCP:  0.13;

NEW RICHMOND   CLOUDY    52  49  90 N14G21    30.07R
6HR MIN TEMP:  52; 6HR MAX TEMP:  62; 6HR PCP:  0.05;

OSCEOLA        CLOUDY    52  49  89 N13       30.11R
6HR MIN TEMP:  52; 6HR MAX TEMP:  60; 6HR PCP:  0.02;

$$

WIZ003>005-009-010-017-018-300700-
NORTH CENTRAL WISCONSIN

CITY           SKY/WX    TMP DP  RH WIND       PRES   REMARKS
MANITOWISH WTR CLOUDY    50  50 100 N9        30.03R
6HR MIN TEMP:  50; 6HR MAX TEMP:  57; 6HR PCP:  0.10;

ARBOR VITAE    RAIN      54  53  94 N14       30.01R
6HR MIN TEMP:  54; 6HR MAX TEMP:  62; 6HR PCP:  0.01;

WOODRUFF       RAIN      54  53  94 N14       30.01R
6HR MIN TEMP:  54; 6HR MAX TEMP:  62; 6HR PCP:  0.01;

RHINELANDER    LGT RAIN  55  53  93 VRB7      29.99S
6HR MIN TEMP:  55; 6HR MAX TEMP:  61; 6HR PCP:  0.26;

EAGLE RIVER    LGT RAIN  54  54 100 N5        29.99S
6HR MIN TEMP:  54; 6HR MAX TEMP:  60; 6HR PCP:  0.15;

LAND O LAKES   LGT RAIN  54  53  95 NE8       30.01S
6HR MIN TEMP:  54; 6HR MAX TEMP:  61; 6HR PCP:  0.12;

PHILLIPS       DRIZZLE   51  49  95 N8G21     30.02R
6HR MIN TEMP:  51; 6HR MAX TEMP:  61; 6HR PCP:  0.05;

TOMAHAWK       RAIN      55  53  94 NW6       30.00R
MEDFORD        LGT RAIN  56  55  96 N10G16    29.98R
6HR MIN TEMP:  56; 6HR MAX TEMP:  64; 6HR PCP:  0.16;

MERRILL        LGT RAIN  57  56  99 N7        29.98R
$$

WIZ029-030-035-036-043>047-300700-
CENTRAL WISCONSIN

CITY           SKY/WX    TMP DP  RH WIND       PRES   REMARKS
WAUSAU         LGT RAIN  60  58  92 N9        29.93R
6HR MIN TEMP:  60; 6HR MAX TEMP:  66; 6HR PCP:  0.25;

MOSINEE        RAIN      61  61 100 N7        29.95S
MARSHFIELD     LGT RAIN  61  57  87 N13G18    29.94S
6HR MIN TEMP:  61; 6HR MAX TEMP:  67; 6HR PCP:  0.16;

STEVENS POINT  LGT RAIN  60  59  97 N5        29.93S
6HR MIN TEMP:  60; 6HR MAX TEMP:  64; 6HR PCP:  0.24;

WAUPACA        RAIN      66  66  97 N3        29.91S
6HR MIN TEMP:  66; 6HR MAX TEMP:  76; 6HR PCP:  0.31;

WAUTOMA        CLOUDY    65  65 100 CALM      29.91S
6HR MIN TEMP:  65; 6HR MAX TEMP:  76; 6HR PCP:  0.30;

WISC RAPIDS    LGT RAIN  63  60  90 NE9       29.93R
6HR MIN TEMP:  63; 6HR MAX TEMP:  66; 6HR PCP:  0.37;

CAMP DOUGLAS   CLOUDY    64  64 100 NW1       29.90F
                                      6HR PCP:  0.56;

$$

WIZ011>013-019>022-031-037>040-048>050-300700-
NORTHEAST WISCONSIN

CITY           SKY/WX    TMP DP  RH WIND       PRES   REMARKS
ANTIGO         RAIN      58  58  98 N13       29.95R
SHAWANO        DRIZZLE   64  62  94 N8        29.91S
6HR MIN TEMP:  64; 6HR MAX TEMP:  73; 6HR PCP:  0.79;

OCONTO         CLOUDY    63  63 100 N5        29.89F
6HR MIN TEMP:  63; 6HR MAX TEMP:  72; 6HR PCP:  0.31;

STURGEON BAY   CLOUDY    61  55  82 N15       29.93S
6HR MIN TEMP:  61; 6HR MAX TEMP:  72;

GREEN BAY      LGT RAIN  65  63  93 N5        29.90F
6HR MIN TEMP:  65; 6HR MAX TEMP:  74; 6HR PCP:  0.19;

MANITOWOC      LGT RAIN  64  63  96 CALM      29.91S
6HR MIN TEMP:  58; 6HR MAX TEMP:  67;

APPLETON       LGT RAIN  63  63 100 CALM      29.91S
CLINTONVILLE   LGT RAIN  63  61  94 NE5       29.91S
OSHKOSH        RAIN      65  63  93 CALM      29.90S FOG
6HR MIN TEMP:  64; 6HR MAX TEMP:  75; 6HR PCP:  0.49;

$$

WIZ032>034-041-042-053>061-300700-
SOUTHWEST WISCONSIN

CITY           SKY/WX    TMP DP  RH WIND       PRES   REMARKS
LA CROSSE      RAIN      66  63  90 NW7       29.91R FOG
6HR MIN TEMP:  66; 6HR MAX TEMP:  69; 6HR PCP:  0.25;

SPARTA         CLOUDY    64  63  96 CALM      29.92S
6HR MIN TEMP:  63; 6HR MAX TEMP:  67; 6HR PCP:  0.17;

VIROQUA        CLOUDY    64  64 100 CALM      29.92S
6HR MIN TEMP:  64; 6HR MAX TEMP:  67; 6HR PCP:  0.14;

BOSCOBEL       CLOUDY    67  65  93 CALM      29.91F
6HR MIN TEMP:  67; 6HR MAX TEMP:  79; 6HR PCP:  0.13;

PRAIRIE DU CHI RAIN      67  62  84 S3        29.91S
6HR MIN TEMP:  67; 6HR MAX TEMP:  73;

PLATTEVILLE    CLOUDY    69  65  88 SW10      29.93S
6HR MIN TEMP:  69; 6HR MAX TEMP:  74;

$$

WIZ056-057-062-063-064-067-068-300700-
SOUTH CENTRAL WISCONSIN

CITY           SKY/WX    TMP DP  RH WIND       PRES   REMARKS
REEDSBURG      HVY RAIN  64  64 100 CALM      29.91S VSB 1
6HR MIN TEMP:  64; 6HR MAX TEMP:  75; 6HR PCP:  0.47;

BARABOO/DELLS  LGT RAIN  64  62  94 CALM      29.91F
6HR MIN TEMP:  64; 6HR MAX TEMP:  75; 6HR PCP:  0.25;

LONE ROCK      CLOUDY    67  65  93 CALM      29.91S
6HR MIN TEMP:  67; 6HR MAX TEMP:  77; 6HR PCP:  0.16;

MINERAL POINT  CLOUDY    70  64  83 SW8       29.93S
MADISON        LGT RAIN  66  63  90 CALM      29.91S
6HR MIN TEMP:  66; 6HR MAX TEMP:  75; 6HR PCP:  0.03;

MIDDLETON      CLOUDY    67  66  96 CALM      29.93R
6HR MIN TEMP:  67; 6HR MAX TEMP:  75; 6HR PCP:  0.08;

WATERTOWN      CLOUDY   N/A N/A N/A CALM      29.91F
MONROE         CLOUDY    68  63  83 SW12      29.93S
JANESVILLE     CLOUDY    70  64  83 SW8       29.93R
$$

WIZ051-052-058>065-066-070>072-300700-
SOUTHEAST WISCONSIN

CITY           SKY/WX    TMP DP  RH WIND       PRES   REMARKS
MILWAUKEE      CLOUDY    71  64  78 W7        29.90S
6HR MIN TEMP:  71; 6HR MAX TEMP:  74;

WAUKESHA       CLOUDY    64  61  88 NW5       29.93S
MILWAUKEE/TIMM CLOUDY    66  61  82 N10       29.92R
RACINE         CLOUDY    70  63  78 SW7       29.92S
6HR MIN TEMP:  66; 6HR MAX TEMP:  71;

BURLINGTON     CLOUDY    67  63  85 SW7       29.92S
6HR MIN TEMP:  66; 6HR MAX TEMP:  72;

KENOSHA        CLOUDY    70  64  81 SW8       29.92S
6HR MIN TEMP:  69; 6HR MAX TEMP:  77; 6HR PCP: TRACE;

FOND DU LAC    LGT RAIN  64  63  96 CALM      29.91F
6HR MIN TEMP:  64; 6HR MAX TEMP:  72; 6HR PCP:  0.34;

SHEBOYGAN      LGT RAIN  64  63  96 CALM      29.91F
6HR MIN TEMP:  64; 6HR MAX TEMP:  70; 6HR PCP:  0.38;

WEST BEND      DRIZZLE   64  61  88 CALM      29.91F
JUNEAU         CLOUDY    64  62  96 CALM      29.93S
6HR MIN TEMP:  64; 6HR MAX TEMP:  69; 6HR PCP:  0.24;

$$

LSZ147-162-300700-
LAKE SUPERIOR

STATION/POSITION TIME  TEMP    WIND        PRES    WAVE
                       AIR SEA DIR/SP/G            HT/PER
                 (UTC) (F)     (DEG/KT/KT) (MB)    (FT/S)
W MID LAKE BUOY  0550   42 37  320/  8/ 10   N/A     1/ 3
DEVILS ISLAND    0600   47     310/  9/ 10   N/A
PORT WING        0500   46     290/  5/  6   N/A
SAXON HARBOR     0540   52     330/  6/  7   N/A
$$

LMZ867-665-643>646-300700-
LAKE MICHIGAN

STATION/POSITION TIME  TEMP    WIND        PRES    WAVE
                       AIR SEA DIR/SP/G            HT/PER
                 (UTC) (F)     (DEG/KT/KT) (MB)    (FT/S)
CHAMBERS ISLAND  0500   56      10/ 11/ 12   N/A
N MID LAKE BUOY  0550   45 37  320/  8/ 10   N/A     1/ 4



USA.gov is the U.S. government's official web portal to all federal, state and local government web resources and services.